STARLINK-30502, 57973

Orbit data source: Space-Track

STARLINK-30502, 57973 is a payload satellite owned by SpaceX/Seattle (US) in LEO that was launched on Sat, 30 Sep 2023 UTC via an FALCON 9 launch vehicle from the Air Force Eastern Test Range (AFETR). Payload-class satellites include a variety of spacecraft equipped with specific instruments for various scientific and technological missions. These include communications satellites like Starlink; space stations such as the ISS; scientific satellites like the Hubble; Earth observation satellites from companies like Planet Labs, Umbra, and HawkEye 360; GPS; miniature CubeSats for education and research; and military/defense satellites.

Loading next visibility...
Identifier
57973, 2023-151K
Orbit
LEO
Country
Flag of USUS
Related business
Manufacturer
SpaceX/Seattle
Mission
Operational Commercial Communications
Bus & Motor
STARLINK V2M, Unknown motor
Mass
730 kg wet, ~700 kg dry
Launch date (UTC)
2023-09-30 (3 years ago)
Launch vehicle
FALCON 9
Launch site
Air Force Eastern Test Range (AFETR)
Object type
Payload
Rocket body
Debris
Shape & HBR
Box + 2 Pan, 17.7 m
Radar Cross Section
33.884 m², Large (>1 m²)

Expand to show TLE details & history
Last TLE update: 2 days ago

TLE from 2 days ago
0 STARLINK-30502
1 57973U 23151K   26174.13342449  .00000490  00000-0  27333-4 0  9998
2 57973  43.0042 100.4211 0000869 264.7578  95.3175 15.27573738151899
Epoch: 2026-06-23T03:12Z
TLE epoch observation values (Epoch: 2026-06-23T03:12:07.875Z)
Latitude
-0.00001°
Longitude
141.07892°
Altitude
482.899 km
Speed
7.626 km/s
True Right ascension
06h 41m 41s
True Declination
0° 00' 00"
Sunlit
Object was in daylight at epoch
Visualization orbit readout
Latitude
Unknown
Longitude
Unknown
Altitude
Unknown
Speed
Unknown
Apparent Right ascension
Unknown
Apparent Declination
Unknown
Sunlit
N/A
Visualization observer readout
Local Sidereal Time
13:38:00
Azimuth
Unknown
Elevation
Unknown
Doppler factor
Unknown
Orbital elements
Apogee altitude
485.609 km
Perigee altitude
484.416 km
Semi-major axis
6,863.149 km
Eccentricity
0.00009
Inclination
43.0042°
RAAN
100.4211°
Arg. of periapsis
264.7578°
True anomaly
95.32742°
Mean anomaly
95.3175°
Eccentric anomaly
95.32246°
Mean motion
3.81732 °/min
Orbital period
94.31 mins
BSTAR
0.000027333
Loading maneuver chart data...
Computing Atmospheric mass density...
Loading historical data...
Loading historical data...
Loading historical data...
Loading historical data...
Loading historical data...
Loading historical data...
Loading historical data...

Documentation

Showing up to 5 results
|